Time,TemperatureF,DewpointF,PressureIn,WindDirection,WindDirectionDegrees,WindSpeedMPH,WindSpeedGustMPH,Humidity,HourlyPrecipIn,Conditions,Clouds,dailyrainin,SoftwareType,DateUTC
2013-12-19 00:04:00,57.9,26.7,29.82,SSW,202,2.7,2.7,30,0.00,,---,0.00,VWS V14.01,2013-12-19 07:04:00,
2013-12-19 00:09:00,58.1,26.9,29.82,WSW,248,1.6,1.6,30,0.00,,---,0.00,VWS V14.01,2013-12-19 07:09:00,
2013-12-19 00:15:00,58.3,27.0,29.82,SSW,202,2.5,2.5,30,0.00,,---,0.00,VWS V14.01,2013-12-19 07:15:00,
2013-12-19 00:20:00,58.3,27.0,29.82,South,180,1.6,1.6,30,0.00,,---,0.00,VWS V14.01,2013-12-19 07:20:00,
2013-12-19 00:25:00,57.9,26.7,29.82,South,180,1.3,1.3,30,0.00,,---,0.00,VWS V14.01,2013-12-19 07:25:00,
2013-12-19 00:30:00,57.9,26.7,29.82,SW,225,1.3,1.6,30,0.00,,---,0.00,VWS V14.01,2013-12-19 07:30:00,
2013-12-19 00:35:00,57.7,26.5,29.82,SSW,202,1.6,2.9,30,0.00,,---,0.00,VWS V14.01,2013-12-19 07:35:00,
2013-12-19 00:40:00,57.6,26.4,29.82,SW,225,3.8,3.8,30,0.00,,---,0.00,VWS V14.01,2013-12-19 07:40:00,
2013-12-19 00:45:00,57.7,26.5,29.82,WSW,248,2.0,2.0,30,0.00,,---,0.00,VWS V14.01,2013-12-19 07:45:00,
2013-12-19 00:50:00,57.7,26.5,29.82,SSW,202,1.1,1.6,30,0.00,,---,0.00,VWS V14.01,2013-12-19 07:50:00,
2013-12-19 00:55:00,57.7,26.5,29.82,WSW,248,3.6,4.0,30,0.00,,---,0.00,VWS V14.01,2013-12-19 07:55:00,
2013-12-19 01:00:00,57.6,26.4,29.82,SW,225,4.9,4.9,30,0.00,,---,0.00,VWS V14.01,2013-12-19 08:00:00,
2013-12-19 01:06:00,57.6,26.4,29.82,SSW,202,1.6,1.6,30,0.00,,---,0.00,VWS V14.01,2013-12-19 08:06:00,
2013-12-19 01:11:00,57.2,26.1,29.82,WSW,248,1.1,1.1,30,0.00,,---,0.00,VWS V14.01,2013-12-19 08:11:00,
2013-12-19 01:16:00,57.2,25.2,29.82,South,180,1.3,3.1,29,0.00,,---,0.00,VWS V14.01,2013-12-19 08:16:00,
2013-12-19 01:21:00,57.0,25.9,29.82,SW,225,1.6,1.6,30,0.00,,---,0.00,VWS V14.01,2013-12-19 08:21:00,
2013-12-19 01:26:00,56.8,25.8,29.82,SW,225,2.5,2.5,30,0.00,,---,0.00,VWS V14.01,2013-12-19 08:26:00,
2013-12-19 01:31:00,57.0,25.9,29.82,South,180,2.5,2.5,30,0.00,,---,0.00,VWS V14.01,2013-12-19 08:31:00,
2013-12-19 01:36:00,57.0,25.9,29.82,SW,225,0.9,1.3,30,0.00,,---,0.00,VWS V14.01,2013-12-19 08:36:00,
2013-12-19 01:41:00,57.0,25.9,29.82,SSW,202,2.5,2.5,30,0.00,,---,0.00,VWS V14.01,2013-12-19 08:41:00,
2013-12-19 01:46:00,57.0,25.9,29.79,SE,135,2.7,2.7,30,0.00,,---,0.00,VWS V14.01,2013-12-19 08:46:00,
2013-12-19 01:51:00,57.0,25.1,29.79,SW,225,3.8,3.8,29,0.00,,---,0.00,VWS V14.01,2013-12-19 08:51:00,
2013-12-19 01:56:00,57.2,25.2,29.79,SSW,202,2.7,2.7,29,0.00,,---,0.00,VWS V14.01,2013-12-19 08:56:00,
2013-12-19 02:02:00,57.4,25.4,29.79,WSW,248,2.9,2.9,29,0.00,,---,0.00,VWS V14.01,2013-12-19 09:02:00,
2013-12-19 02:07:00,57.6,25.6,29.79,South,180,3.1,3.1,29,0.00,,---,0.00,VWS V14.01,2013-12-19 09:07:00,
2013-12-19 02:12:00,57.6,25.6,29.79,South,180,2.5,3.8,29,0.00,,---,0.00,VWS V14.01,2013-12-19 09:12:00,
2013-12-19 02:17:00,57.7,24.9,29.79,SSE,158,3.1,3.1,28,0.00,,---,0.00,VWS V14.01,2013-12-19 09:17:00,
2013-12-19 02:22:00,57.7,24.9,29.79,SW,225,3.6,3.6,28,0.00,,---,0.00,VWS V14.01,2013-12-19 09:22:00,
2013-12-19 02:27:00,57.6,24.7,29.79,WSW,248,2.5,2.5,28,0.00,,---,0.00,VWS V14.01,2013-12-19 09:27:00,
2013-12-19 02:32:00,57.6,24.7,29.79,SSW,202,3.1,3.1,28,0.00,,---,0.00,VWS V14.01,2013-12-19 09:32:00,
2013-12-19 02:37:00,57.2,24.4,29.79,South,180,2.0,4.0,28,0.00,,---,0.00,VWS V14.01,2013-12-19 09:37:00,
2013-12-19 02:42:00,57.2,24.4,29.79,SSW,202,2.9,2.9,28,0.00,,---,0.00,VWS V14.01,2013-12-19 09:42:00,
2013-12-19 02:47:00,57.2,24.4,29.79,WSW,248,2.0,2.7,28,0.00,,---,0.00,VWS V14.01,2013-12-19 09:47:00,
2013-12-19 02:52:00,57.2,24.4,29.79,SSE,158,4.0,4.0,28,0.00,,---,0.00,VWS V14.01,2013-12-19 09:52:00,
2013-12-19 02:57:00,56.8,24.1,29.79,SSE,158,2.5,2.5,28,0.00,,---,0.00,VWS V14.01,2013-12-19 09:57:00,
2013-12-19 03:02:00,56.8,24.1,29.79,SE,135,5.4,5.4,28,0.00,,---,0.00,VWS V14.01,2013-12-19 10:02:00,
2013-12-19 03:08:00,57.0,24.3,29.79,SSW,202,2.5,4.9,28,0.00,,---,0.00,VWS V14.01,2013-12-19 10:08:00,
2013-12-19 03:13:00,57.0,24.3,29.79,SSE,158,2.9,2.9,28,0.00,,---,0.00,VWS V14.01,2013-12-19 10:13:00,
2013-12-19 03:18:00,57.2,24.4,29.82,SW,225,2.7,4.7,28,0.00,,---,0.00,VWS V14.01,2013-12-19 10:18:00,
2013-12-19 03:23:00,57.4,24.6,29.82,SE,135,2.9,4.0,28,0.00,,---,0.00,VWS V14.01,2013-12-19 10:23:00,
2013-12-19 03:28:00,57.4,24.6,29.82,South,180,5.6,8.1,28,0.00,,---,0.00,VWS V14.01,2013-12-19 10:28:00,
2013-12-19 03:33:00,57.6,24.7,29.82,ESE,112,4.9,4.9,28,0.00,,---,0.00,VWS V14.01,2013-12-19 10:33:00,
2013-12-19 03:38:00,57.4,24.6,29.82,SSE,158,3.8,3.8,28,0.00,,---,0.00,VWS V14.01,2013-12-19 10:38:00,
2013-12-19 03:43:00,57.4,24.6,29.82,SSW,202,4.7,4.7,28,0.00,,---,0.00,VWS V14.01,2013-12-19 10:43:00,
2013-12-19 03:49:00,57.2,24.4,29.79,South,180,3.8,3.8,28,0.00,,---,0.00,VWS V14.01,2013-12-19 10:49:00,
2013-12-19 03:54:00,57.2,24.4,29.79,SE,135,5.8,5.8,28,0.00,,---,0.00,VWS V14.01,2013-12-19 10:54:00,
2013-12-19 03:59:00,57.2,24.4,29.79,WSW,248,8.1,8.1,28,0.00,,---,0.00,VWS V14.01,2013-12-19 10:59:00,
2013-12-19 04:04:00,57.2,24.4,29.79,SSW,202,3.4,3.4,28,0.00,,---,0.00,VWS V14.01,2013-12-19 11:04:00,
2013-12-19 04:09:00,57.0,24.3,29.79,SW,225,3.8,3.8,28,0.00,,---,0.00,VWS V14.01,2013-12-19 11:09:00,
2013-12-19 04:14:00,57.0,24.3,29.79,SW,225,3.1,3.1,28,0.00,,---,0.00,VWS V14.01,2013-12-19 11:14:00,
2013-12-19 04:19:00,57.0,24.3,29.79,SSW,202,4.9,4.9,28,0.00,,---,0.00,VWS V14.01,2013-12-19 11:19:00,
2013-12-19 04:24:00,56.8,24.1,29.79,West,270,3.6,3.6,28,0.00,,---,0.00,VWS V14.01,2013-12-19 11:24:00,
2013-12-19 04:29:00,56.7,24.0,29.79,SE,135,2.5,5.6,28,0.00,,---,0.00,VWS V14.01,2013-12-19 11:29:00,
2013-12-19 04:34:00,56.7,24.8,29.79,South,180,3.4,5.8,29,0.00,,---,0.00,VWS V14.01,2013-12-19 11:34:00,
2013-12-19 04:39:00,56.7,24.8,29.79,WSW,248,3.6,4.7,29,0.00,,---,0.00,VWS V14.01,2013-12-19 11:39:00,
2013-12-19 04:44:00,56.7,24.8,29.79,SE,135,1.3,2.7,29,0.00,,---,0.00,VWS V14.01,2013-12-19 11:44:00,
2013-12-19 04:50:00,56.5,24.6,29.79,SSE,158,3.1,3.1,29,0.00,,---,0.00,VWS V14.01,2013-12-19 11:50:00,
2013-12-19 04:55:00,56.3,24.5,29.79,SSE,158,2.7,2.7,29,0.00,,---,0.00,VWS V14.01,2013-12-19 11:55:00,
2013-12-19 05:00:00,56.3,24.5,29.79,SW,225,2.0,2.0,29,0.00,,---,0.00,VWS V14.01,2013-12-19 12:00:00,
2013-12-19 05:05:00,56.1,24.3,29.79,WSW,248,1.6,1.6,29,0.00,,---,0.00,VWS V14.01,2013-12-19 12:05:00,
2013-12-19 05:10:00,55.9,24.2,29.79,SSW,202,5.4,5.4,29,0.00,,---,0.00,VWS V14.01,2013-12-19 12:10:00,
2013-12-19 05:15:00,55.9,24.2,29.79,SW,225,2.5,3.6,29,0.00,,---,0.00,VWS V14.01,2013-12-19 12:15:00,
2013-12-19 05:20:00,55.9,24.2,29.79,SSW,202,2.5,3.6,29,0.00,,---,0.00,VWS V14.01,2013-12-19 12:20:00,
2013-12-19 05:25:00,56.3,24.5,29.79,South,180,2.7,2.7,29,0.00,,---,0.00,VWS V14.01,2013-12-19 12:25:00,
2013-12-19 05:31:00,56.1,24.3,29.79,SSW,202,3.1,3.1,29,0.00,,---,0.00,VWS V14.01,2013-12-19 12:31:00,
2013-12-19 05:36:00,56.3,24.5,29.79,SSW,202,2.0,2.0,29,0.00,,---,0.00,VWS V14.01,2013-12-19 12:36:00,
2013-12-19 05:41:00,56.3,24.5,29.79,ESE,112,3.1,3.6,29,0.00,,---,0.00,VWS V14.01,2013-12-19 12:41:00,
2013-12-19 05:46:00,56.3,24.5,29.79,WNW,292,2.9,2.9,29,0.00,,---,0.00,VWS V14.01,2013-12-19 12:46:00,
2013-12-19 05:51:00,56.5,24.6,29.79,South,180,3.4,5.8,29,0.00,,---,0.00,VWS V14.01,2013-12-19 12:51:00,
2013-12-19 05:56:00,56.7,24.8,29.79,West,270,2.5,3.6,29,0.00,,---,0.00,VWS V14.01,2013-12-19 12:56:00,
2013-12-19 06:01:00,56.7,24.8,29.79,SSW,202,3.4,3.4,29,0.00,,---,0.00,VWS V14.01,2013-12-19 13:01:00,
2013-12-19 06:06:00,56.7,24.8,29.79,South,180,3.4,3.4,29,0.00,,---,0.00,VWS V14.01,2013-12-19 13:06:00,
2013-12-19 06:11:00,56.7,24.8,29.79,SW,225,3.1,3.1,29,0.00,,---,0.00,VWS V14.01,2013-12-19 13:11:00,
2013-12-19 06:16:00,56.5,24.6,29.79,South,180,2.7,2.7,29,0.00,,---,0.00,VWS V14.01,2013-12-19 13:16:00,
2013-12-19 06:21:00,56.3,24.5,29.79,SW,225,3.8,5.8,29,0.00,,---,0.00,VWS V14.01,2013-12-19 13:21:00,
2013-12-19 06:26:00,56.3,24.5,29.79,WSW,248,2.9,2.9,29,0.00,,---,0.00,VWS V14.01,2013-12-19 13:26:00,
2013-12-19 06:31:00,56.5,24.6,29.79,SSE,158,4.0,4.0,29,0.00,,---,0.00,VWS V14.01,2013-12-19 13:31:00,
2013-12-19 06:37:00,56.5,24.6,29.79,ENE,68,2.7,2.7,29,0.00,,---,0.00,VWS V14.01,2013-12-19 13:37:00,
2013-12-19 06:42:00,56.3,24.5,29.79,South,180,5.6,5.6,29,0.00,,---,0.00,VWS V14.01,2013-12-19 13:42:00,
2013-12-19 06:47:00,56.1,24.3,29.79,South,180,3.8,3.8,29,0.00,,---,0.00,VWS V14.01,2013-12-19 13:47:00,
2013-12-19 06:52:00,56.1,24.3,29.79,SW,225,2.5,2.5,29,0.00,,---,0.00,VWS V14.01,2013-12-19 13:52:00,
2013-12-19 06:57:00,55.9,24.2,29.79,WSW,248,2.5,2.5,29,0.00,,---,0.00,VWS V14.01,2013-12-19 13:57:00,
2013-12-19 07:02:00,55.8,24.0,29.79,SSE,158,2.9,4.0,29,0.00,,---,0.00,VWS V14.01,2013-12-19 14:02:00,
2013-12-19 07:07:00,55.8,24.0,29.79,SE,135,7.4,7.4,29,0.00,,---,0.00,VWS V14.01,2013-12-19 14:07:00,
2013-12-19 07:12:00,55.8,24.0,29.79,SW,225,3.4,4.3,29,0.00,,---,0.00,VWS V14.01,2013-12-19 14:12:00,
2013-12-19 07:17:00,55.8,24.0,29.79,South,180,2.7,2.7,29,0.00,,---,0.00,VWS V14.01,2013-12-19 14:17:00,
2013-12-19 07:22:00,55.6,23.9,29.79,SSE,158,2.0,3.6,29,0.00,,---,0.00,VWS V14.01,2013-12-19 14:22:00,
2013-12-19 07:27:00,55.2,23.5,29.79,SW,225,4.9,4.9,29,0.00,,---,0.00,VWS V14.01,2013-12-19 14:27:00,
2013-12-19 07:32:00,55.2,23.5,29.79,South,180,2.7,3.4,29,0.00,,---,0.00,VWS V14.01,2013-12-19 14:32:00,
2013-12-19 07:37:00,55.0,23.4,29.79,SSW,202,2.9,2.9,29,0.00,,---,0.00,VWS V14.01,2013-12-19 14:37:00,
2013-12-19 07:43:00,55.2,23.5,29.79,South,180,4.9,4.9,29,0.00,,---,0.00,VWS V14.01,2013-12-19 14:43:00,
2013-12-19 07:48:00,55.4,23.7,29.79,SSE,158,2.9,3.8,29,0.00,,---,0.00,VWS V14.01,2013-12-19 14:48:00,
2013-12-19 07:53:00,55.4,23.7,29.79,SSW,202,1.3,1.3,29,0.00,,---,0.00,VWS V14.01,2013-12-19 14:53:00,
2013-12-19 07:58:00,55.4,23.7,29.79,SW,225,6.3,6.3,29,0.00,,---,0.00,VWS V14.01,2013-12-19 14:58:00,
2013-12-19 08:03:00,55.9,24.2,29.79,SSE,158,7.4,7.4,29,0.00,,---,0.00,VWS V14.01,2013-12-19 15:03:00,
2013-12-19 08:08:00,56.5,24.6,29.79,NW,315,8.5,8.5,29,0.00,,---,0.00,VWS V14.01,2013-12-19 15:08:00,
2013-12-19 08:13:00,56.8,24.9,29.79,SW,225,5.6,5.6,29,0.00,,---,0.00,VWS V14.01,2013-12-19 15:13:00,
2013-12-19 08:18:00,57.4,25.4,29.79,ESE,112,10.7,10.7,29,0.00,,---,0.00,VWS V14.01,2013-12-19 15:18:00,
2013-12-19 08:23:00,57.9,25.9,29.79,SW,225,5.4,5.4,29,0.00,,---,0.00,VWS V14.01,2013-12-19 15:23:00,
2013-12-19 08:28:00,58.3,25.3,29.79,SSW,202,4.0,4.3,28,0.00,,---,0.00,VWS V14.01,2013-12-19 15:28:00,
2013-12-19 08:33:00,58.6,26.5,29.79,SSW,202,4.3,4.3,29,0.00,,---,0.00,VWS V14.01,2013-12-19 15:33:00,
2013-12-19 08:38:00,59.2,26.1,29.79,SSW,202,4.3,4.3,28,0.00,,---,0.00,VWS V14.01,2013-12-19 15:38:00,
2013-12-19 08:44:00,59.5,26.4,29.79,SSW,202,6.0,6.0,28,0.00,,---,0.00,VWS V14.01,2013-12-19 15:44:00,
2013-12-19 08:49:00,59.9,26.7,29.79,SSW,202,7.8,7.8,28,0.00,,---,0.00,VWS V14.01,2013-12-19 15:49:00,
2013-12-19 08:54:00,60.1,26.9,29.79,SE,135,7.6,7.6,28,0.00,,---,0.00,VWS V14.01,2013-12-19 15:54:00,
2013-12-19 08:59:00,60.4,27.2,29.79,SSW,202,6.0,7.4,28,0.00,,---,0.00,VWS V14.01,2013-12-19 15:59:00,
2013-12-19 09:04:00,60.8,26.6,29.79,ESE,112,3.8,3.8,27,0.00,,---,0.00,VWS V14.01,2013-12-19 16:04:00,
2013-12-19 09:09:00,61.2,26.9,29.79,South,180,10.1,10.1,27,0.00,,---,0.00,VWS V14.01,2013-12-19 16:09:00,
2013-12-19 09:14:00,61.3,27.1,29.79,SW,225,6.5,6.5,27,0.00,,---,0.00,VWS V14.01,2013-12-19 16:14:00,
2013-12-19 09:19:00,61.7,27.4,29.79,SSE,158,10.5,10.5,27,0.00,,---,0.00,VWS V14.01,2013-12-19 16:19:00,
2013-12-19 09:24:00,61.9,27.6,29.79,SSE,158,9.0,10.7,27,0.00,,---,0.00,VWS V14.01,2013-12-19 16:24:00,
2013-12-19 09:29:00,62.2,27.9,29.79,SSE,158,8.7,8.7,27,0.00,,---,0.00,VWS V14.01,2013-12-19 16:29:00,
2013-12-19 09:35:00,62.4,28.0,29.79,South,180,6.5,6.5,27,0.00,,---,0.00,VWS V14.01,2013-12-19 16:35:00,
2013-12-19 09:40:00,62.6,27.3,29.79,SSE,158,5.8,5.8,26,0.00,,---,0.00,VWS V14.01,2013-12-19 16:40:00,
2013-12-19 09:45:00,63.0,27.6,29.79,South,180,7.4,7.4,26,0.00,,---,0.00,VWS V14.01,2013-12-19 16:45:00,
2013-12-19 09:50:00,63.3,27.9,29.79,ENE,68,5.8,5.8,26,0.00,,---,0.00,VWS V14.01,2013-12-19 16:50:00,
2013-12-19 09:55:00,63.5,28.0,29.79,ESE,112,6.5,7.6,26,0.00,,---,0.00,VWS V14.01,2013-12-19 16:55:00,
2013-12-19 10:00:00,63.7,28.2,29.79,SE,135,6.0,6.5,26,0.00,,---,0.00,VWS V14.01,2013-12-19 17:00:00,
2013-12-19 10:05:00,63.9,28.3,29.79,SE,135,3.4,5.4,26,0.00,,---,0.00,VWS V14.01,2013-12-19 17:05:00,
2013-12-19 10:10:00,64.0,28.5,29.79,SW,225,4.3,4.3,26,0.00,,---,0.00,VWS V14.01,2013-12-19 17:10:00,
2013-12-19 10:15:00,64.4,27.8,29.79,SSE,158,5.4,5.4,25,0.00,,---,0.00,VWS V14.01,2013-12-19 17:15:00,
2013-12-19 10:20:00,64.8,28.1,29.79,SW,225,4.0,4.0,25,0.00,,---,0.00,VWS V14.01,2013-12-19 17:20:00,
2013-12-19 10:26:00,64.8,28.1,29.79,ESE,112,6.0,6.0,25,0.00,,---,0.00,VWS V14.01,2013-12-19 17:26:00,
2013-12-19 10:31:00,65.1,28.5,29.79,SSW,202,6.7,6.7,25,0.00,,---,0.00,VWS V14.01,2013-12-19 17:31:00,
2013-12-19 10:36:00,65.3,28.6,29.79,SW,225,6.5,6.5,25,0.00,,---,0.00,VWS V14.01,2013-12-19 17:36:00,
2013-12-19 10:41:00,65.7,28.9,29.79,WSW,248,6.3,6.3,25,0.00,,---,0.00,VWS V14.01,2013-12-19 17:41:00,
2013-12-19 10:46:00,65.8,29.1,29.79,SSW,202,2.7,2.7,25,0.00,,---,0.00,VWS V14.01,2013-12-19 17:46:00,
2013-12-19 10:51:00,66.2,29.4,29.79,SSE,158,6.5,6.5,25,0.00,,---,0.00,VWS V14.01,2013-12-19 17:51:00,
2013-12-19 10:56:00,66.6,28.7,29.79,South,180,7.8,7.8,24,0.00,,---,0.00,VWS V14.01,2013-12-19 17:56:00,
2013-12-19 11:01:00,66.4,28.5,29.76,SW,225,4.7,4.7,24,0.00,,---,0.00,VWS V14.01,2013-12-19 18:01:00,
2013-12-19 11:06:00,66.6,28.7,29.76,WSW,248,8.7,8.7,24,0.00,,---,0.00,VWS V14.01,2013-12-19 18:06:00,
2013-12-19 11:11:00,66.6,28.7,29.76,SW,225,7.4,7.4,24,0.00,,---,0.00,VWS V14.01,2013-12-19 18:11:00,
2013-12-19 11:16:00,66.6,28.7,29.76,ESE,112,8.1,8.1,24,0.00,,---,0.00,VWS V14.01,2013-12-19 18:16:00,
2013-12-19 11:21:00,66.7,28.8,29.76,WSW,248,8.5,8.5,24,0.00,,---,0.00,VWS V14.01,2013-12-19 18:21:00,
2013-12-19 11:26:00,67.1,29.1,29.76,SW,225,8.5,8.5,24,0.00,,---,0.00,VWS V14.01,2013-12-19 18:26:00,
2013-12-19 11:31:00,67.3,29.3,29.76,SSW,202,5.6,5.6,24,0.00,,---,0.00,VWS V14.01,2013-12-19 18:31:00,
2013-12-19 11:36:00,67.6,29.6,29.76,WSW,248,4.3,4.3,24,0.00,,---,0.00,VWS V14.01,2013-12-19 18:36:00,
2013-12-19 11:41:00,67.8,29.7,29.76,South,180,8.7,8.7,24,0.00,,---,0.00,VWS V14.01,2013-12-19 18:41:00,
2013-12-19 11:46:00,68.0,28.9,29.76,SE,135,8.1,8.1,23,0.00,,---,0.00,VWS V14.01,2013-12-19 18:46:00,
2013-12-19 11:51:00,68.2,29.0,29.76,SW,225,5.6,5.8,23,0.00,,---,0.00,VWS V14.01,2013-12-19 18:51:00,
2013-12-19 11:56:00,68.7,30.5,29.76,WNW,292,3.8,3.8,24,0.00,,---,0.00,VWS V14.01,2013-12-19 18:56:00,
2013-12-19 12:02:00,68.7,29.5,29.74,SE,135,7.6,7.6,23,0.00,,---,0.00,VWS V14.01,2013-12-19 19:02:00,
2013-12-19 12:07:00,68.7,29.5,29.74,SSW,202,9.6,9.6,23,0.00,,---,0.00,VWS V14.01,2013-12-19 19:07:00,
2013-12-19 12:12:00,68.7,29.5,29.74,South,180,6.0,6.0,23,0.00,,---,0.00,VWS V14.01,2013-12-19 19:12:00,
2013-12-19 12:17:00,68.7,29.5,29.74,SW,225,4.3,6.3,23,0.00,,---,0.00,VWS V14.01,2013-12-19 19:17:00,
2013-12-19 12:22:00,68.9,29.6,29.74,SW,225,5.8,5.8,23,0.00,,---,0.00,VWS V14.01,2013-12-19 19:22:00,
2013-12-19 12:27:00,69.3,29.9,29.74,ESE,112,3.4,6.9,23,0.00,,---,0.00,VWS V14.01,2013-12-19 19:27:00,
2013-12-19 12:32:00,69.4,30.1,29.71,South,180,4.9,4.9,23,0.00,,---,0.00,VWS V14.01,2013-12-19 19:32:00,
2013-12-19 12:37:00,69.4,30.1,29.71,SE,135,4.3,6.3,23,0.00,,---,0.00,VWS V14.01,2013-12-19 19:37:00,
2013-12-19 12:42:00,69.4,30.1,29.71,SE,135,4.3,6.5,23,0.00,,---,0.00,VWS V14.01,2013-12-19 19:42:00,
2013-12-19 12:47:00,69.4,30.1,29.71,WSW,248,6.0,6.0,23,0.00,,---,0.00,VWS V14.01,2013-12-19 19:47:00,
2013-12-19 12:52:00,69.6,30.2,29.71,SE,135,5.4,5.4,23,0.00,,---,0.00,VWS V14.01,2013-12-19 19:52:00,
2013-12-19 12:57:00,69.8,30.4,29.71,SW,225,4.0,4.0,23,0.00,,---,0.00,VWS V14.01,2013-12-19 19:57:00,
2013-12-19 13:03:00,70.2,30.7,29.71,SE,135,3.6,3.6,23,0.00,,---,0.00,VWS V14.01,2013-12-19 20:03:00,
2013-12-19 13:08:00,70.2,30.7,29.71,WSW,248,4.0,4.0,23,0.00,,---,0.00,VWS V14.01,2013-12-19 20:08:00,
2013-12-19 13:13:00,70.3,30.8,29.71,SW,225,6.5,6.5,23,0.00,,---,0.00,VWS V14.01,2013-12-19 20:13:00,
2013-12-19 13:18:00,70.0,30.5,29.71,NW,315,3.4,3.4,23,0.00,,---,0.00,VWS V14.01,2013-12-19 20:18:00,
2013-12-19 13:23:00,70.2,30.7,29.71,South,180,7.6,7.6,23,0.00,,---,0.00,VWS V14.01,2013-12-19 20:23:00,
2013-12-19 13:28:00,70.2,30.7,29.71,NW,315,4.5,7.8,23,0.00,,---,0.00,VWS V14.01,2013-12-19 20:28:00,
2013-12-19 13:33:00,70.0,29.4,29.68,SSW,202,7.4,7.4,22,0.00,,---,0.00,VWS V14.01,2013-12-19 20:33:00,
2013-12-19 13:38:00,70.0,29.4,29.68,SW,225,3.4,12.5,22,0.00,,---,0.00,VWS V14.01,2013-12-19 20:38:00,
2013-12-19 13:43:00,70.0,29.4,29.68,SSW,202,5.8,5.8,22,0.00,,---,0.00,VWS V14.01,2013-12-19 20:43:00,
2013-12-19 13:48:00,70.3,30.8,29.68,SW,225,4.0,4.0,23,0.00,,---,0.00,VWS V14.01,2013-12-19 20:48:00,
2013-12-19 13:53:00,70.3,29.7,29.68,SW,225,4.9,8.7,22,0.00,,---,0.00,VWS V14.01,2013-12-19 20:53:00,
2013-12-19 13:59:00,70.3,29.7,29.68,SW,225,6.5,6.5,22,0.00,,---,0.00,VWS V14.01,2013-12-19 20:59:00,
2013-12-19 14:04:00,70.5,29.9,29.68,SSE,158,4.3,4.3,22,0.00,,---,0.00,VWS V14.01,2013-12-19 21:04:00,
2013-12-19 14:09:00,70.9,30.2,29.68,WSW,248,3.6,3.6,22,0.00,,---,0.00,VWS V14.01,2013-12-19 21:09:00,
2013-12-19 14:14:00,71.1,30.3,29.68,SW,225,6.0,6.0,22,0.00,,---,0.00,VWS V14.01,2013-12-19 21:14:00,
2013-12-19 14:19:00,70.9,30.2,29.68,SW,225,4.0,7.8,22,0.00,,---,0.00,VWS V14.01,2013-12-19 21:19:00,
2013-12-19 14:24:00,70.9,30.2,29.68,SW,225,5.8,10.3,22,0.00,,---,0.00,VWS V14.01,2013-12-19 21:24:00,
2013-12-19 14:29:00,70.7,30.0,29.68,WSW,248,7.2,7.4,22,0.00,,---,0.00,VWS V14.01,2013-12-19 21:29:00,
2013-12-19 14:34:00,70.7,30.0,29.68,SSW,202,6.0,7.6,22,0.00,,---,0.00,VWS V14.01,2013-12-19 21:34:00,
2013-12-19 14:39:00,70.5,29.9,29.68,SW,225,9.8,9.8,22,0.00,,---,0.00,VWS V14.01,2013-12-19 21:39:00,
2013-12-19 14:44:00,70.5,29.9,29.68,South,180,6.5,6.5,22,0.00,,---,0.00,VWS V14.01,2013-12-19 21:44:00,
2013-12-19 14:50:00,70.5,29.9,29.68,East,90,3.1,3.1,22,0.00,,---,0.00,VWS V14.01,2013-12-19 21:50:00,
2013-12-19 14:55:00,70.3,29.7,29.68,South,180,5.6,5.6,22,0.00,,---,0.00,VWS V14.01,2013-12-19 21:55:00,
2013-12-19 15:00:00,70.5,29.9,29.68,SSE,158,5.6,5.6,22,0.00,,---,0.00,VWS V14.01,2013-12-19 22:00:00,
2013-12-19 15:05:00,70.5,29.9,29.68,WSW,248,5.4,5.4,22,0.00,,---,0.00,VWS V14.01,2013-12-19 22:05:00,
2013-12-19 15:10:00,70.3,29.7,29.68,WNW,292,6.0,6.0,22,0.00,,---,0.00,VWS V14.01,2013-12-19 22:10:00,
2013-12-19 15:15:00,70.3,29.7,29.68,WSW,248,5.4,5.4,22,0.00,,---,0.00,VWS V14.01,2013-12-19 22:15:00,
2013-12-19 15:20:00,70.0,29.4,29.68,SW,225,7.6,7.6,22,0.00,,---,0.00,VWS V14.01,2013-12-19 22:20:00,
2013-12-19 15:25:00,70.0,29.4,29.68,SW,225,5.8,5.8,22,0.00,,---,0.00,VWS V14.01,2013-12-19 22:25:00,
2013-12-19 15:30:00,69.6,30.2,29.68,SW,225,3.1,6.3,23,0.00,,---,0.00,VWS V14.01,2013-12-19 22:30:00,
2013-12-19 15:35:00,69.4,30.1,29.68,WSW,248,8.5,8.5,23,0.00,,---,0.00,VWS V14.01,2013-12-19 22:35:00,
2013-12-19 15:40:00,69.3,29.9,29.68,SE,135,5.8,5.8,23,0.00,,---,0.00,VWS V14.01,2013-12-19 22:40:00,
2013-12-19 15:45:00,69.3,29.9,29.68,West,270,4.9,8.1,23,0.00,,---,0.00,VWS V14.01,2013-12-19 22:45:00,
2013-12-19 15:50:00,69.1,29.8,29.68,WSW,248,5.6,10.5,23,0.00,,---,0.00,VWS V14.01,2013-12-19 22:50:00,
2013-12-19 15:55:00,69.1,29.8,29.68,West,270,5.8,5.8,23,0.00,,---,0.00,VWS V14.01,2013-12-19 22:55:00,
2013-12-19 16:00:00,68.7,29.5,29.68,WSW,248,6.5,6.7,23,0.00,,---,0.00,VWS V14.01,2013-12-19 23:00:00,
2013-12-19 16:05:00,68.7,29.5,29.68,South,180,2.7,5.8,23,0.00,,---,0.00,VWS V14.01,2013-12-19 23:05:00,
2013-12-19 16:10:00,68.5,29.3,29.68,SW,225,3.6,3.6,23,0.00,,---,0.00,VWS V14.01,2013-12-19 23:10:00,
2013-12-19 16:16:00,68.4,29.1,29.65,WSW,248,2.9,2.9,23,0.00,,---,0.00,VWS V14.01,2013-12-19 23:16:00,
2013-12-19 16:21:00,68.2,29.0,29.65,SW,225,5.6,6.3,23,0.00,,---,0.00,VWS V14.01,2013-12-19 23:21:00,
2013-12-19 16:26:00,68.0,28.9,29.65,West,270,2.5,2.5,23,0.00,,---,0.00,VWS V14.01,2013-12-19 23:26:00,
2013-12-19 16:31:00,67.6,28.5,29.68,SW,225,3.6,3.6,23,0.00,,---,0.00,VWS V14.01,2013-12-19 23:31:00,
2013-12-19 16:36:00,67.5,28.4,29.68,South,180,3.1,3.8,23,0.00,,---,0.00,VWS V14.01,2013-12-19 23:36:00,
2013-12-19 16:41:00,67.1,28.1,29.68,SSW,202,4.3,4.3,23,0.00,,---,0.00,VWS V14.01,2013-12-19 23:41:00,
2013-12-19 16:46:00,66.7,27.8,29.65,South,180,4.9,4.9,23,0.00,,---,0.00,VWS V14.01,2013-12-19 23:46:00,
2013-12-19 16:51:00,66.4,27.5,29.65,SSE,158,7.6,9.6,23,0.00,,---,0.00,VWS V14.01,2013-12-19 23:51:00,
2013-12-19 16:56:00,66.0,28.2,29.65,SE,135,4.3,5.4,24,0.00,,---,0.00,VWS V14.01,2013-12-19 23:56:00,
2013-12-19 17:01:00,65.5,27.8,29.68,SSE,158,4.0,4.3,24,0.00,,---,0.00,VWS V14.01,2013-12-20 00:01:00,
2013-12-19 17:06:00,64.9,27.3,29.68,SSW,202,5.8,5.8,24,0.00,,---,0.00,VWS V14.01,2013-12-20 00:06:00,
2013-12-19 17:11:00,64.4,26.9,29.68,SW,225,3.8,3.8,24,0.00,,---,0.00,VWS V14.01,2013-12-20 00:11:00,
2013-12-19 17:16:00,64.0,26.5,29.68,SSW,202,4.3,4.3,24,0.00,,---,0.00,VWS V14.01,2013-12-20 00:16:00,
2013-12-19 17:21:00,63.7,26.2,29.68,SSW,202,3.6,3.6,24,0.00,,---,0.00,VWS V14.01,2013-12-20 00:21:00,
2013-12-19 17:26:00,63.3,25.9,29.68,South,180,4.9,4.9,24,0.00,,---,0.00,VWS V14.01,2013-12-20 00:26:00,
2013-12-19 17:32:00,63.1,25.8,29.68,SSE,158,3.6,3.6,24,0.00,,---,0.00,VWS V14.01,2013-12-20 00:32:00,
2013-12-19 17:37:00,63.0,25.6,29.68,WSW,248,5.8,5.8,24,0.00,,---,0.00,VWS V14.01,2013-12-20 00:37:00,
2013-12-19 17:42:00,62.8,25.5,29.68,South,180,6.5,6.5,24,0.00,,---,0.00,VWS V14.01,2013-12-20 00:42:00,
2013-12-19 17:47:00,62.6,26.3,29.68,WSW,248,3.4,3.4,25,0.00,,---,0.00,VWS V14.01,2013-12-20 00:47:00,
2013-12-19 17:52:00,62.4,26.2,29.68,South,180,3.1,5.6,25,0.00,,---,0.00,VWS V14.01,2013-12-20 00:52:00,
2013-12-19 17:57:00,62.2,26.0,29.68,SW,225,5.6,5.6,25,0.00,,---,0.00,VWS V14.01,2013-12-20 00:57:00,
2013-12-19 18:02:00,62.1,25.9,29.68,West,270,2.9,2.9,25,0.00,,---,0.00,VWS V14.01,2013-12-20 01:02:00,
2013-12-19 18:07:00,61.9,25.7,29.68,WSW,248,4.3,4.3,25,0.00,,---,0.00,VWS V14.01,2013-12-20 01:07:00,
2013-12-19 18:12:00,61.7,25.5,29.68,South,180,4.3,4.3,25,0.00,,---,0.00,VWS V14.01,2013-12-20 01:12:00,
2013-12-19 18:17:00,61.3,25.2,29.68,WSW,248,3.8,3.8,25,0.00,,---,0.00,VWS V14.01,2013-12-20 01:17:00,
2013-12-19 18:22:00,61.0,24.9,29.68,South,180,1.3,2.2,25,0.00,,---,0.00,VWS V14.01,2013-12-20 01:22:00,
2013-12-19 18:27:00,60.4,25.4,29.68,WSW,248,2.7,2.7,26,0.00,,---,0.00,VWS V14.01,2013-12-20 01:27:00,
2013-12-19 18:33:00,60.3,24.3,29.68,SW,225,2.9,2.9,25,0.00,,---,0.00,VWS V14.01,2013-12-20 01:33:00,
2013-12-19 18:38:00,59.9,24.0,29.68,SW,225,3.4,3.4,25,0.00,,---,0.00,VWS V14.01,2013-12-20 01:38:00,
2013-12-19 18:43:00,59.7,23.9,29.68,WSW,248,2.7,2.7,25,0.00,,---,0.00,VWS V14.01,2013-12-20 01:43:00,
2013-12-19 18:48:00,59.4,23.6,29.68,SW,225,2.2,2.2,25,0.00,,---,0.00,VWS V14.01,2013-12-20 01:48:00,
2013-12-19 18:53:00,59.0,23.2,29.68,WSW,248,2.2,2.9,25,0.00,,---,0.00,VWS V14.01,2013-12-20 01:53:00,
2013-12-19 18:58:00,58.8,24.0,29.68,WSW,248,2.0,2.0,26,0.00,,---,0.00,VWS V14.01,2013-12-20 01:58:00,
2013-12-19 19:03:00,58.3,23.6,29.68,WSW,248,3.1,3.1,26,0.00,,---,0.00,VWS V14.01,2013-12-20 02:03:00,
2013-12-19 19:08:00,58.1,23.4,29.68,West,270,2.7,2.7,26,0.00,,---,0.00,VWS V14.01,2013-12-20 02:08:00,
2013-12-19 19:13:00,57.9,23.3,29.68,SSW,202,0.0,1.6,26,0.00,,---,0.00,VWS V14.01,2013-12-20 02:13:00,
2013-12-19 19:18:00,57.4,22.8,29.68,WSW,248,2.5,3.1,26,0.00,,---,0.00,VWS V14.01,2013-12-20 02:18:00,
2013-12-19 19:23:00,57.0,23.4,29.68,SW,225,2.9,2.9,27,0.00,,---,0.00,VWS V14.01,2013-12-20 02:23:00,
2013-12-19 19:28:00,56.8,23.2,29.68,West,270,2.0,3.1,27,0.00,,---,0.00,VWS V14.01,2013-12-20 02:28:00,
2013-12-19 19:33:00,56.8,23.2,29.68,WSW,248,2.0,3.6,27,0.00,,---,0.00,VWS V14.01,2013-12-20 02:33:00,
2013-12-19 19:38:00,56.7,23.1,29.68,WSW,248,3.1,3.1,27,0.00,,---,0.00,VWS V14.01,2013-12-20 02:38:00,
2013-12-19 19:43:00,56.5,22.9,29.68,WSW,248,1.6,1.6,27,0.00,,---,0.00,VWS V14.01,2013-12-20 02:43:00,
2013-12-19 19:48:00,56.5,22.9,29.68,SSE,158,3.8,3.8,27,0.00,,---,0.00,VWS V14.01,2013-12-20 02:48:00,
2013-12-19 19:53:00,56.7,23.1,29.68,SSW,202,3.1,3.1,27,0.00,,---,0.00,VWS V14.01,2013-12-20 02:53:00,
2013-12-19 19:58:00,56.5,22.9,29.68,WSW,248,0.9,2.0,27,0.00,,---,0.00,VWS V14.01,2013-12-20 02:58:00,
2013-12-19 20:04:00,56.3,22.8,29.68,WSW,248,3.6,3.6,27,0.00,,---,0.00,VWS V14.01,2013-12-20 03:04:00,
2013-12-19 20:09:00,56.3,22.8,29.68,WSW,248,3.8,3.8,27,0.00,,---,0.00,VWS V14.01,2013-12-20 03:09:00,
2013-12-19 20:14:00,55.9,22.5,29.68,WSW,248,2.9,2.9,27,0.00,,---,0.00,VWS V14.01,2013-12-20 03:14:00,
2013-12-19 20:19:00,55.8,22.3,29.68,SW,225,5.4,5.4,27,0.00,,---,0.00,VWS V14.01,2013-12-20 03:19:00,
2013-12-19 20:24:00,55.4,22.9,29.68,South,180,0.9,0.9,28,0.00,,---,0.00,VWS V14.01,2013-12-20 03:24:00,
2013-12-19 20:29:00,55.0,22.5,29.68,WSW,248,4.3,4.3,28,0.00,,---,0.00,VWS V14.01,2013-12-20 03:29:00,
2013-12-19 20:34:00,54.7,24.7,29.71,WSW,248,7.8,7.8,31,0.00,,---,0.00,VWS V14.01,2013-12-20 03:34:00,
2013-12-19 20:39:00,54.9,26.3,29.71,WSW,248,4.7,4.7,33,0.00,,---,0.00,VWS V14.01,2013-12-20 03:39:00,
2013-12-19 20:44:00,54.9,27.8,29.71,West,270,3.6,5.4,35,0.00,,---,0.00,VWS V14.01,2013-12-20 03:44:00,
2013-12-19 20:49:00,54.9,28.4,29.71,WNW,292,3.4,3.4,36,0.00,,---,0.00,VWS V14.01,2013-12-20 03:49:00,
2013-12-19 20:55:00,54.9,28.4,29.71,WSW,248,3.4,3.4,36,0.00,,---,0.00,VWS V14.01,2013-12-20 03:55:00,
2013-12-19 21:00:00,54.9,28.4,29.71,West,270,2.0,2.0,36,0.00,,---,0.00,VWS V14.01,2013-12-20 04:00:00,
2013-12-19 21:05:00,54.5,28.1,29.71,WSW,248,0.0,0.0,36,0.00,,---,0.00,VWS V14.01,2013-12-20 04:05:00,
2013-12-19 21:10:00,54.3,28.0,29.71,WSW,248,1.3,1.3,36,0.00,,---,0.00,VWS V14.01,2013-12-20 04:10:00,
2013-12-19 21:15:00,54.1,28.5,29.71,West,270,0.0,0.9,37,0.00,,---,0.00,VWS V14.01,2013-12-20 04:15:00,
2013-12-19 21:20:00,54.1,28.5,29.71,West,270,0.9,1.1,37,0.00,,---,0.00,VWS V14.01,2013-12-20 04:20:00,
2013-12-19 21:25:00,54.0,28.3,29.71,West,270,2.5,2.5,37,0.00,,---,0.00,VWS V14.01,2013-12-20 04:25:00,
2013-12-19 21:30:00,54.0,29.0,29.71,West,270,0.0,0.0,38,0.00,,---,0.00,VWS V14.01,2013-12-20 04:30:00,
2013-12-19 21:35:00,53.8,28.8,29.71,West,270,1.1,1.1,38,0.00,,---,0.00,VWS V14.01,2013-12-20 04:35:00,
2013-12-19 21:40:00,53.6,29.3,29.71,NW,315,1.6,1.6,39,0.00,,---,0.00,VWS V14.01,2013-12-20 04:40:00,
2013-12-19 21:45:00,53.6,32.2,29.71,ENE,68,0.9,0.9,44,0.00,,---,0.00,VWS V14.01,2013-12-20 04:45:00,
2013-12-19 21:50:00,53.4,29.7,29.71,ESE,112,0.0,0.0,40,0.00,,---,0.00,VWS V14.01,2013-12-20 04:50:00,
2013-12-19 21:55:00,53.1,29.4,29.71,ESE,112,0.0,0.9,40,0.00,,---,0.00,VWS V14.01,2013-12-20 04:55:00,
2013-12-19 22:01:00,53.1,30.6,29.71,NW,315,0.9,1.6,42,0.00,,---,0.00,VWS V14.01,2013-12-20 05:01:00,
2013-12-19 22:02:00,53.1,30.6,29.71,NW,315,0.0,0.0,42,0.00,,---,0.00,VWS V14.01,2013-12-20 05:02:00,
2013-12-19 22:07:00,53.1,30.6,29.71,West,270,0.0,0.0,42,0.00,,---,0.00,VWS V14.01,2013-12-20 05:07:00,
2013-12-19 22:12:00,52.9,30.4,29.71,WSW,248,0.0,0.0,42,0.00,,---,0.00,VWS V14.01,2013-12-20 05:12:00,
2013-12-19 22:17:00,52.7,32.5,29.71,WNW,292,0.0,0.0,46,0.00,,---,0.00,VWS V14.01,2013-12-20 05:17:00,
2013-12-19 22:22:00,52.7,31.4,29.71,NW,315,0.0,0.0,44,0.00,,---,0.00,VWS V14.01,2013-12-20 05:22:00,
2013-12-19 22:27:00,52.5,31.8,29.71,NW,315,2.9,2.9,45,0.00,,---,0.00,VWS V14.01,2013-12-20 05:27:00,
2013-12-19 22:32:00,52.3,32.7,29.71,NW,315,2.7,2.7,47,0.00,,---,0.00,VWS V14.01,2013-12-20 05:32:00,
2013-12-19 22:37:00,52.2,32.0,29.71,WSW,248,2.7,2.7,46,0.00,,---,0.00,VWS V14.01,2013-12-20 05:37:00,
2013-12-19 22:42:00,52.2,32.0,29.71,West,270,1.3,1.3,46,0.00,,---,0.00,VWS V14.01,2013-12-20 05:42:00,
2013-12-19 22:47:00,52.0,32.4,29.71,NW,315,2.2,2.2,47,0.00,,---,0.00,VWS V14.01,2013-12-20 05:47:00,
2013-12-19 22:52:00,51.8,33.3,29.71,NW,315,2.9,2.9,49,0.00,,---,0.00,VWS V14.01,2013-12-20 05:52:00,
2013-12-19 22:57:00,51.8,32.2,29.71,ESE,112,0.0,0.0,47,0.00,,---,0.00,VWS V14.01,2013-12-20 05:57:00,
2013-12-19 23:02:00,51.6,32.1,29.71,ESE,112,0.0,0.0,47,0.00,,---,0.00,VWS V14.01,2013-12-20 06:02:00,
2013-12-19 23:07:00,51.4,31.9,29.71,ESE,112,2.7,2.7,47,0.00,,---,0.00,VWS V14.01,2013-12-20 06:07:00,
2013-12-19 23:12:00,51.4,31.9,29.71,East,90,2.9,2.9,47,0.00,,---,0.00,VWS V14.01,2013-12-20 06:12:00,
2013-12-19 23:17:00,51.3,32.8,29.71,East,90,0.9,0.9,49,0.00,,---,0.00,VWS V14.01,2013-12-20 06:17:00,
2013-12-19 23:22:00,51.1,33.1,29.71,ESE,112,0.0,0.0,50,0.00,,---,0.00,VWS V14.01,2013-12-20 06:22:00,
2013-12-19 23:27:00,50.9,32.4,29.71,ESE,112,0.0,0.0,49,0.00,,---,0.00,VWS V14.01,2013-12-20 06:27:00,
2013-12-19 23:32:00,50.9,31.9,29.71,ESE,112,0.0,0.0,48,0.00,,---,0.00,VWS V14.01,2013-12-20 06:32:00,
2013-12-19 23:37:00,50.9,32.4,29.71,ESE,112,0.0,0.0,49,0.00,,---,0.00,VWS V14.01,2013-12-20 06:37:00,
2013-12-19 23:42:00,50.7,33.3,29.71,NE,45,2.0,2.0,51,0.00,,---,0.00,VWS V14.01,2013-12-20 06:42:00,
2013-12-19 23:47:00,50.7,35.2,29.71,East,90,0.0,0.0,55,0.00,,---,0.00,VWS V14.01,2013-12-20 06:47:00,
2013-12-19 23:53:00,50.7,35.6,29.71,ENE,68,0.0,0.0,56,0.00,,---,0.00,VWS V14.01,2013-12-20 06:53:00,
2013-12-19 23:58:00,50.7,35.2,29.71,ENE,68,0.0,0.0,55,0.00,,---,0.00,VWS V14.01,2013-12-20 06:58:00,